Regional Weather Roundup
Issued by NWS

Home | Current Version | Previous Version | Graphics & Text | Print | Product List | Glossary On
Versions: 1 2 3 4 5 6 7 8 9 10 11 12 13 14 15 16 17 18 19 20 21 22 23 24 25 26 27 28 29 30 31 32 33 34 35 36 37 38 39 40 41 42 43 44 45 46 47 48 49 50
000
ASUS43 KBIS 040102
RWRND

NORTH DAKOTA REGIONAL WEATHER ROUNDUP
NATIONAL WEATHER SERVICE BISMARCK ND
700 PM CST SAT DEC 03 2016

NOTE: "FAIR" INDICATES FEW OR NO CLOUDS BELOW 12,000 FEET WITH NO
SIGNIFICANT WEATHER AND/OR OBSTRUCTIONS TO VISIBILITY.


NDZ001>003-009>011-017-040200-
NORTHWEST NORTH DAKOTA

CITY           SKY/WX    TMP DP  RH WIND       PRES   REMARKS
WILLISTON      PTCLDY    31  29  92 SW3       29.75S
MINOT          LGT SNOW  28  25  88 S13       29.77F FOG     WCI  17
MINOT AFB      CLOUDY    27  25  92 S10       29.76F WCI  17
$$

NDZ018>021-031>035-040>046-040200-
SOUTHWEST NORTH DAKOTA

CITY           SKY/WX    TMP DP  RH WIND       PRES   REMARKS
BISMARCK       CLOUDY    26  23  88 CALM      29.85F
DICKINSON      CLOUDY    27  21  78 SW13      29.75S WCI  16
GARRISON         N/A     27  25  92 S12       29.78F WCI  17
HETTINGER ARPT CLOUDY    27  22  81 W5        29.82F
$$

NDZ004>008-012>016-024-026-027-054-040200-
NORTHEAST NORTH DAKOTA

CITY           SKY/WX    TMP DP  RH WIND       PRES   REMARKS
GRAND FORKS    LGT SNOW  31  25  78 SE17      29.98F WCI  19
GRND FRKS AFB  FLURRIES  31  27  88 S15       29.97F WCI  20
DEVILS LAKE    CLOUDY    31  28  89 SE20G25   29.88F WCI  19
$$

NDZ022-023-025-028>030-036>039-047>053-040200-
SOUTHEAST NORTH DAKOTA

CITY           SKY/WX    TMP DP  RH WIND       PRES   REMARKS
FARGO          CLOUDY    32  28  85 SE18G26   29.99F
JAMESTOWN      CLOUDY    33  31  92 SE13      29.89F
$$





USA.gov is the U.S. government's official web portal to all federal, state and local government web resources and services.